TimeCET,TemperatureF,Dew PointF,Humidity,Sea Level PressureIn,VisibilityMPH,Wind Direction,Wind SpeedMPH,Gust SpeedMPH,PrecipitationIn,Events,Conditions,WindDirDegrees,DateUTC
6:00 AM,46.4,42.8,87,30.01,5.0,NW,4.6,-,N/A,,Partly Cloudy,310,2013-02-17 05:00:00
6:30 AM,48.2,46.4,93,30.01,5.0,Variable,1.2,-,N/A,,Partly Cloudy,0,2013-02-17 05:30:00
7:00 AM,50,46,82,30.02,5,Calm,Calm,,,,Mist,,2013-02-17 06:00:00
7:00 AM,46.4,44.6,93,30.01,5.0,Variable,1.2,-,N/A,,Partly Cloudy,0,2013-02-17 06:00:00
7:30 AM,46.4,44.6,93,30.04,5.6,WNW,3.5,-,N/A,,Mostly Cloudy,290,2013-02-17 06:30:00
8:00 AM,51.8,50.0,94,30.04,5.6,WSW,3.5,-,N/A,,Scattered Clouds,240,2013-02-17 07:00:00
8:30 AM,51.8,50.0,94,30.04,5.0,Variable,2.3,-,N/A,,Partly Cloudy,0,2013-02-17 07:30:00
9:00 AM,55.4,51.8,88,30.04,5.6,West,4.6,-,N/A,,Scattered Clouds,260,2013-02-17 08:00:00
9:30 AM,59.0,51.8,77,30.04,5.0,Calm,Calm,-,N/A,,Partly Cloudy,0,2013-02-17 08:30:00
10:00 AM,57.2,51.8,82,30.04,5.0,Calm,Calm,-,N/A,,Partly Cloudy,0,2013-02-17 09:00:00
10:30 AM,60.8,53.6,77,30.04,5.6,Calm,Calm,-,N/A,,Scattered Clouds,0,2013-02-17 09:30:00
11:00 AM,60.8,51.8,72,30.04,6.2,Variable,2.3,-,N/A,,Scattered Clouds,0,2013-02-17 10:00:00
11:30 AM,60.8,51.8,72,30.04,6.2,West,3.5,-,N/A,,Scattered Clouds,270,2013-02-17 10:30:00
12:00 PM,62.6,51.8,68,30.04,6.2,WNW,3.5,-,N/A,,Scattered Clouds,290,2013-02-17 11:00:00
12:30 PM,62.6,51.8,68,30.04,6.2,Variable,2.3,-,N/A,,Scattered Clouds,0,2013-02-17 11:30:00
1:00 PM,63,50,53,30.03,16,NW,6.9,,,,Partly Cloudy,310,2013-02-17 12:00:00
1:00 PM,62.6,50.0,63,30.04,6.2,West,5.8,-,N/A,,Scattered Clouds,280,2013-02-17 12:00:00
1:30 PM,62.6,50.0,63,30.04,6.2,WNW,10.4,-,N/A,,Scattered Clouds,290,2013-02-17 12:30:00
2:00 PM,60.8,51.8,72,30.01,6.2,West,11.5,-,N/A,,Mostly Cloudy,280,2013-02-17 13:00:00
2:30 PM,60.8,51.8,72,30.01,6.2,West,11.5,-,N/A,,Mostly Cloudy,280,2013-02-17 13:30:00
3:00 PM,60.8,51.8,72,30.01,6.2,West,11.5,-,N/A,,Scattered Clouds,280,2013-02-17 14:00:00
3:30 PM,60.8,51.8,72,30.01,6.2,West,12.7,-,N/A,,Scattered Clouds,270,2013-02-17 14:30:00
4:00 PM,60.8,50.0,68,30.01,6.2,West,11.5,-,N/A,,Partly Cloudy,260,2013-02-17 15:00:00
4:30 PM,60.8,48.2,63,30.01,6.2,West,10.4,-,N/A,,Partly Cloudy,260,2013-02-17 15:30:00
5:00 PM,60.8,50.0,68,30.01,6.2,West,9.2,-,N/A,,Partly Cloudy,270,2013-02-17 16:00:00
5:30 PM,59.0,51.8,77,30.01,6.2,West,8.1,-,N/A,,Partly Cloudy,260,2013-02-17 16:30:00
6:00 PM,59.0,50.0,72,29.98,6.2,SSW,6.9,-,N/A,,Partly Cloudy,200,2013-02-17 17:00:00
6:30 PM,60.8,50.0,68,29.98,6.2,Variable,2.3,-,N/A,,Partly Cloudy,0,2013-02-17 17:30:00
7:00 PM,60,50,61,29.98,19,North,2.3,,,,Overcast,350,2013-02-17 18:00:00
7:00 PM,59.0,50.0,72,29.98,6.2,NNW,3.5,-,N/A,,Partly Cloudy,330,2013-02-17 18:00:00
7:30 PM,59.0,50.0,72,29.98,6.2,Variable,1.2,-,N/A,,Partly Cloudy,0,2013-02-17 18:30:00